Location: Radford
(37.1320°N, 80.5770°W)
Time: 01:27:06
(UTC-04:00)

Daily predictions for brighter satellites

Satellite Brightness Start Highest point End
(mag) Time Altitude Azimuth Time Altitude Azimuth Time Altitude Azimuth
SL-16 R/B 4.3 03:33:25 24° N 03:33:25 24° N 03:35:44 10° N
Cosmos 2322 Rocket 4.0 03:58:56 24° N 03:58:56 24° N 04:01:07 10° NNE
SL-16 R/B 4.0 04:04:10 25° N 04:04:10 25° N 04:06:34 10° NNE
COSMOS 2428 4.4 04:09:53 26° ESE 04:10:00 26° ESE 04:14:38 10° NE
Resurs 1-4 Rocket 4.0 04:06:22 10° N 04:08:11 22° N 04:08:11 22° N
CZ-2D R/B 3.9 04:08:31 10° N 04:10:47 25° N 04:10:47 25° N
Okean O Rocket 4.0 04:13:37 10° NE 04:16:33 19° E 04:16:33 19° E
FALCON 9 R/B 4.2 04:17:39 58° WSW 04:21:02 75° S 05:05:16 10° ESE
Lacrosse 4 Rocket 4.2 04:26:46 13° ESE 04:26:46 13° ESE 04:27:19 10° ESE
Cosmos 2360 Rocket 2.9 04:27:51 49° NNE 04:27:51 49° NNE 04:31:54 10° NNE
ADEOS II 3.7 04:30:57 10° NE 04:35:31 29° E 04:37:45 22° SE
ADEOS Rocket 3.9 04:34:06 10° N 04:37:11 32° NNW 04:37:11 32° NNW
CENTAUR R/B 4.2 04:43:40 21° NW 04:43:40 21° NW 04:48:35 10° N
USA 215 4.1 04:41:58 10° ESE 04:48:11 47° NE 04:54:24 10° NW
Cosmos 1536 Rocket 4.3 04:53:01 51° NE 04:53:01 51° NE 04:56:38 10° NNE
Cosmos 2333 Rocket 3.9 04:53:37 13° SSE 04:57:40 29° ESE 05:02:33 10° NE
Cosmos 1743 4.5 04:58:32 10° NNE 05:02:01 31° ENE 05:05:27 10° SE
Cosmos 2322 4.0 05:04:46 51° NW 05:04:46 51° NW 05:09:54 10° NNE
PSLV R/B 4.4 05:03:22 10° NNE 05:07:35 48° E 05:08:52 36° SSE
CZ-4B R/B 3.7 05:05:31 10° NNE 05:08:01 42° NNE 05:08:01 42° NNE
Meteor 1-18 Rocket 4.4 05:12:25 49° WNW 05:12:25 49° WNW 05:17:19 10° N
Cosmos 2327 Rocket 4.4 05:06:02 10° NNW 05:12:14 66° W 05:13:53 48° SSW
EO 1 Del DPAF 3.9 05:13:25 19° SSE 05:15:58 55° ENE 05:19:46 10° N
Nadezhda 1 Rocket 3.8 05:16:39 51° SW 05:18:02 65° W 05:24:05 10° N
Cosmos 1610 Rocket 4.4 05:12:48 10° N 05:19:05 80° W 05:25:25 10° S
Meteor 1-12 Rocket 4.1 05:14:35 10° NNW 05:20:11 64° W 05:22:23 37° SSW
Meteor 2-13 Rocket 4.3 05:16:48 10° NNW 05:22:53 65° W 05:27:43 16° S
Cosmos 2333 4.1 05:21:50 47° SSW 05:23:32 81° WNW 05:29:15 10° NNE
Hubble Space Telescope 3.2 05:24:27 12° SSE 05:24:30 12° SSE 05:26:00 10° SE
Cosmos 1570 Rocket 4.0 05:24:16 56° WSW 05:24:53 60° WNW 05:30:03 10° N
Meteor 1-13 Rocket 4.1 05:23:36 24° S 05:27:05 86° E 05:32:42 10° N
CZ-4B DEB 4.1 05:28:32 10° N 05:34:07 79° WNW 05:37:41 23° SSW
MOS 1 Rocket 4.1 05:30:03 10° N 05:33:36 32° NW 05:33:36 32° NW
Tiangong 2 1.5 05:34:35 57° NNE 05:34:35 57° NNE 05:37:33 10° E
CZ-4B R/B 3.1 05:29:03 10° N 05:34:42 79° WNW 05:38:17 23° SSW
Cosmos 2074 Rocket 4.4 05:29:22 10° NNW 05:35:04 38° W 05:35:49 37° WSW
IRS-P2 Rocket 4.5 05:31:25 10° NNE 05:36:39 86° WNW 05:40:29 19° SSW
GPS 2-04 Rocket1 4.0 05:36:09 26° S 05:36:45 28° SSE 05:40:05 10° E
Cosmos 1238 Rocket 3.3 05:42:00 31° NNW 05:42:00 31° NNW 05:43:45 10° N
Cosmos 2341 Rocket 4.0 05:34:54 10° N 05:41:10 85° E 05:47:22 10° S
Cosmos 1980 4.2 05:37:41 10° S 05:43:13 59° ESE 05:48:45 10° NNE
IRS-1C Rocket 4.1 05:38:27 10° N 05:43:37 59° WNW 05:46:22 27° SW
ERS-2 2.7 05:41:38 10° NNE 05:45:17 57° ESE 05:48:54 10° S
IRAS Rocket 4.2 05:42:25 10° N 05:47:55 67° WNW 05:52:15 17° SSW
CZ-2C R/B 3.6 05:46:07 10° S 05:50:41 66° WSW 05:55:12 10° NNW
Cosmos 2219 Rocket 2.1 05:48:29 22° SSW 05:52:11 72° WNW 05:57:47 10° NNE
Okean O Rocket 2.3 05:49:16 10° N 05:53:16 33° WNW 05:54:01 31° W
COSMOS 2428 3.2 05:51:56 29° WSW 05:54:01 39° WNW 05:59:20 10° N
Cosmos 1025 Rocket 3.0 05:52:48 10° S 05:57:10 85° E 06:01:35 10° N
Cosmos 1937 Rocket 4.4 05:53:33 10° N 05:58:46 53° ENE 06:03:55 10° SE
NOSS 0 Rocket 3.9 05:53:16 10° SSW 05:59:27 89° ESE 06:05:39 10° NNE
Meteor 2-9 Rocket 4.3 05:53:57 10° N 05:59:39 81° E 06:05:07 10° S
GENESIS II 4.3 05:57:24 20° SSW 06:00:07 81° ESE 06:04:12 10° NNE
Meteor 1-23 Rocket 4.3 05:54:28 10° S 06:00:16 84° E 06:06:05 10° N
Cosmos 1844 Rocket 2.6 05:56:18 10° NNW 06:01:48 62° WSW 06:07:16 10° S
Cosmos 1437 3.4 05:58:57 10° S 06:02:10 58° E 06:05:24 10° NNE
Lacrosse 4 Rocket 2.6 06:03:25 23° SW 06:03:25 23° SW 06:05:58 10° SSW
DELTA 2 R/B (1) 3.7 06:02:43 22° W 06:06:22 69° N 06:11:55 10° E
Okean-O 2.6 06:02:40 10° NNE 06:07:07 89° ESE 06:11:33 10° SSW
Cosmos 841 Rocket 4.4 06:02:51 10° S 06:07:48 50° ESE 06:12:46 10° NNE
Cosmos 1892 Rocket 4.4 06:03:41 10° S 06:07:53 53° E 06:12:09 10° NNE
Cosmos 2360 Rocket 4.0 06:09:38 13° WNW 06:10:58 14° NW 06:13:42 10° NNW
USA 116 3.9 06:07:01 10° S 06:11:09 79° WSW 06:15:52 10° NNW
Cosmos 2285 Rocket 4.0 06:05:11 10° SSW 06:11:34 68° WNW 06:18:01 10° NNE
EXPRESS MD2 3.8 06:07:02 13° SW 06:11:45 58° SE 06:14:44 10° ENE
ADEOS II 2.9 06:10:35 10° N 06:15:09 31° WNW 06:18:42 15° WSW
Cosmos 2278 Rocket 2.5 06:11:46 10° NNW 06:17:27 73° ENE 06:23:05 10° SSE
Cosmos 2298 Rocket 4.0 06:12:51 10° NNW 06:18:12 82° WSW 06:23:31 10° SSE
Cosmos 1814 Rocket 3.9 06:13:20 10° SSW 06:18:31 70° WNW 06:23:41 10° NNE
Cosmos 2237 Rocket 2.2 06:14:26 10° SSW 06:20:06 73° WNW 06:25:49 10° NNE
Cosmos 1441 Rocket 4.1 06:17:27 10° S 06:21:17 53° E 06:25:11 10° NNE
Cosmos 1959 Rocket 4.5 06:15:54 10° N 06:22:02 90° WNW 06:28:12 10° S
Aureole 2 Rocket 2.6 06:20:05 10° SSW 06:23:42 52° WNW 06:27:02 10° N
Cosmos 1515 4.2 06:22:19 10° S 06:26:07 65° E 06:29:57 10° NNE
Meteor 2-4 Rocket 4.0 06:21:02 10° SSW 06:26:21 43° WNW 06:31:35 10° N
Cosmos 405 Rocket 3.0 06:23:31 10° SSW 06:27:29 52° W 06:31:26 10° N
Cosmos 371 Rocket 3.6 06:22:48 10° S 06:27:37 74° ESE 06:32:30 10° NNE
Meteor 1-15 Rocket 4.3 06:21:55 10° N 06:27:51 81° W 06:33:46 10° S
Cosmos 1666 3.6 06:26:52 10° NNW 06:30:14 28° W 06:33:35 10° SSW
ATLAS 5 CENTAUR R/B 2.5 06:24:53 10° NNW 06:31:02 87° ENE 06:37:38 10° SSE
USA 215 3.5 06:24:50 10° SSE 06:31:07 48° SW 06:37:25 10° NW
Okean 2 3.6 06:27:09 10° SSW 06:31:11 52° W 06:35:16 10° N
Cosmos 332 Rocket 3.8 06:26:25 10° SSW 06:31:18 77° WNW 06:36:13 10° NNE
Cosmos 2366 rocket 4.0 06:29:09 10° N 06:35:31 80° W 06:41:51 10° S
Cosmos 1346 3.5 06:33:19 10° S 06:36:06 60° E 06:38:56 10° NNE
Cosmos 1743 4.5 06:35:30 10° NW 06:37:29 14° W 06:39:29 10° WSW
OAO 3 Copernicus 4.4 06:35:01 11° W 06:39:45 65° S 06:44:44 10° ESE
Cosmos 2333 Rocket 2.9 06:36:35 10° SW 06:41:46 35° WNW 06:47:01 10° N
SKYMED 2 3.6 06:38:40 10° SSE 06:43:00 88° E 06:47:22 10° NNW
USA 229 DEB 4.4 06:38:39 10° WSW 06:44:54 37° NW 06:51:18 10° NNE
USA 229 4.4 06:38:44 10° WSW 06:45:00 38° NW 06:51:24 10° NNE
Cosmos 2058 Rocket 3.1 06:41:04 10° N 06:45:34 85° W 06:49:59 10° S
Cosmos 1867 3.6 06:40:45 10° NW 06:46:07 60° WSW 06:51:26 10° SSE
Meteor 1-31 Rocket 3.8 06:43:33 10° NNW 06:46:42 25° WNW 06:49:49 10° SW
CZ-4 R/B 4.4 06:44:27 10° NE 06:47:12 18° E 06:49:55 10° SE
NOSS 3-1 (A) 3.4 06:51:12 10° SSW 06:56:56 86° WNW 07:03:21 10° NNE
